Location: Lower Kingswood
(51.2667°N, 0.2167°W)
Time: 13:13:50
(UTC+00:00)

COSMOS 2406 - Pass Details

Date: 26 September 2023
Orbit: 843 x 863 km, 71.0° (Epoch: 28 November)

Event Time Altitude Azimuth Distance (km) Brightness Sun altitude
Exits shadow 02:14:12 58° 76° (ENE) 1,006 3.7 -31.6°
Drops below altitude 10° 02:19:09 10° 35° (NE) 2,514 6.5 -31.1°
Sets 02:21:38 0° 32° (NNE) 3,453 7.5 -30.8°
